sat.trackr.live / text

‹ back to catalog

STARLINK-30455

NORAD 57942 · 2023-148H

PAYLOAD ACTIVE UNKNOWN

§ Identity

Operator
Country
US
Launch date
2023-09-25
Launch site
AFWTR
Launch vehicle
Mass (kg)
RCS (m²)

Purposes: comms

External: N2YO · Heavens-Above · Gunter

§ Orbital elements

Epoch: 2026-09-20T11:05:04.368768Z

Period
93.90 min
Inclination
53.1588°
Eccentricity
0.0001370
Mean motion
15.33552662 rev/d
Perigee alt
464.3 km
Apogee alt
466.2 km
Semi-major
6,843.4 km
B*
6.3704e-5
RAAN
197.9852°
Arg perigee
86.3291°
Mean anomaly
273.7868°
Rev number
16,826

§ Raw data

STARLINK-304551 57942U 23148H   26263.46185612  .00001723  00000+0  63704-4 0  99932 57942  53.1588 197.9852 0001370  86.3291 273.7868 15.33552662168262

JSON: /api/v1/satellites/57942 · /tle

For live sub-satellite position, see the globe view (requires WebGL).

§ Visibility from observer

Set your observer location to see the next 7 days of passes ≥ 10°. The values pass through the URL so the page stays shareable.

No JS? Fill the form by hand. The geolocation button needs JavaScript.